Find Kosmos-203

NORAD ID: 3129 Int'l Des: 1968-011 Owner: OKB10 Country: SU operational
LEOCIRCULAR

リアルタイム位置

3D地球を読み込み中...

Kosmos-203について

説明を読み込み中...

次回通過

Passes for default location (London). Set your location on the main map for personalized predictions.

高度履歴

Loading altitude history...

軌道要素

1 3129U 68011A 26105.51485468 .00000100 00000-0 30468-3 0 9991
2 3129 74.0528 187.8680 0011868 33.8811 337.7506 13.18302618797725
Epoch: Apr 15, 2026 • Age: 19 hours

現在のステータス

高度 1199.0 km
速度 7.26 km/s
衛星直下点 41.75°N, 39.57°E
タイプ other

Most Searched